Change the Weather History Date:

Sunday, March 31, 2013

  Actual Average (KFLO) Record (KFLO)
Temperature  
Mean Temperature 64 °F 60 °F  
Max Temperature 77 °F 72 °F 88 °F (1968)
Min Temperature 51 °F 47 °F 24 °F (1964)
Degree Days  
Heating Degree Days 1 7  
Month to date heating degree days 309  
Since 1 July heating degree days 2376  
Cooling Degree Days 0 1  
Month to date cooling degree days 18  
Year to date cooling degree days 24  
Growing Degree Days 14 (Base 50)    
Moisture  
Dew Point 52 °F    
Average Humidity 72    
Maximum Humidity 100    
Minimum Humidity 39    
Precipitation  
Precipitation 0.00 in 0.10 in 1.80 in (1961)
Month to date precipitation 3.33  
Year to date precipitation 9.48  
Snow  
Snow 0.00 in - - ()
Month to date snowfall  
Since 1 July snowfall  
Snow Depth -    
Sea Level Pressure  
Sea Level Pressure 29.95 in    
Wind  
Wind Speed 4 mph (SW)    
Max Wind Speed 16 mph    
Max Gust Speed 24 mph    
Visibility 10 miles    
Events      
T = Trace of Precipitation, MM = Missing Value Source: NWS Daily Summary

Daily Weather History Graph

Daily Weather History Graph

Search for Another Location

Airport or City:

Trip Planner

Search our weather history database for the weather conditions in past years. The results will help you decide how hot, cold, wet, or windy it might be!

Date:

Astronomy

Mar. 31, 2013 Rise Set
Actual Time 7:08 AM EDT 7:40 PM EDT
Civil Twilight 6:43 AM EDT 8:06 PM EDT
Nautical Twilight 6:13 AM EDT 8:35 PM EDT
Astronomical Twilight 5:43 AM EDT 9:06 PM EDT
Moon No Moon Rise 10:05 AM EDT (3/31)
Length of Visible Light 13h 22m
Length of Day
12h 32m
Waning Gibbous, 78% of the Moon is Illuminated
Mar 31
Waning Gibbous
Apr 3
Last Quarter
Apr 10
New
Apr 18
First Quarter
Apr 25
Full

Hourly Weather History & Observations

Time (EDT) Temp. Dew Point Humidity Pressure Visibility Wind Dir Wind Speed Gust Speed Precip Events Conditions
12:15 AM 53.6 °F 46.4 °F 77% 30.10 in 10.0 mi Calm Calm - N/A   Clear
12:35 AM 51.8 °F 46.4 °F 82% 30.10 in 10.0 mi Calm Calm - N/A   Scattered Clouds
12:55 AM 51.8 °F 46.4 °F 82% 30.08 in 10.0 mi East 5.8 mph - N/A   Scattered Clouds
1:15 AM 51.8 °F 46.4 °F 82% 30.08 in 10.0 mi East 4.6 mph - N/A   Clear
1:35 AM 51.8 °F 46.4 °F 82% 30.07 in 10.0 mi East 5.8 mph - N/A   Scattered Clouds
1:55 AM 51.8 °F 46.4 °F 82% 30.06 in 10.0 mi Calm Calm - N/A   Scattered Clouds
2:15 AM 51.8 °F 46.4 °F 82% 30.05 in 10.0 mi Calm Calm - N/A   Mostly Cloudy
2:35 AM 51.8 °F 46.4 °F 82% 30.05 in 10.0 mi ESE 4.6 mph - N/A   Overcast
2:55 AM 53.6 °F 46.4 °F 77% 30.04 in 10.0 mi Calm Calm - N/A   Overcast
3:15 AM 53.6 °F 46.4 °F 77% 30.04 in 10.0 mi Calm Calm - N/A   Overcast
3:35 AM 51.8 °F 48.2 °F 88% 30.03 in 7.0 mi Calm Calm - N/A   Overcast
3:55 AM 51.8 °F 50.0 °F 94% 30.01 in 10.0 mi Calm Calm - N/A   Overcast
4:15 AM 51.8 °F 51.8 °F 100% 30.01 in 10.0 mi Calm Calm - N/A   Overcast
4:35 AM 51.8 °F 51.8 °F 100% 30.01 in 10.0 mi Calm Calm - N/A   Overcast
4:55 AM 53.6 °F 51.8 °F 94% 30.00 in 10.0 mi South 4.6 mph - N/A   Overcast
5:15 AM 53.6 °F 51.8 °F 94% 29.99 in 10.0 mi Calm Calm - N/A   Overcast
5:35 AM 53.6 °F 51.8 °F 94% 29.99 in 10.0 mi Calm Calm - N/A   Overcast
5:55 AM 53.6 °F 51.8 °F 94% 30.00 in 10.0 mi Calm Calm - N/A   Overcast
6:15 AM 53.6 °F 51.8 °F 94% 29.99 in 7.0 mi Calm Calm - N/A   Overcast
6:35 AM 53.6 °F 51.8 °F 94% 29.99 in 10.0 mi Calm Calm - N/A   Overcast
6:55 AM 53.6 °F 51.8 °F 94% 29.99 in 10.0 mi Calm Calm - N/A   Overcast
7:15 AM 53.6 °F 51.8 °F 94% 29.99 in 10.0 mi Calm Calm - N/A   Overcast
7:35 AM 53.6 °F 53.6 °F 100% 29.99 in 7.0 mi Calm Calm - N/A   Overcast
7:55 AM 53.6 °F 53.6 °F 100% 29.99 in 10.0 mi SSW 3.5 mph - N/A   Overcast
8:15 AM 53.6 °F 53.6 °F 100% 29.99 in 10.0 mi Calm Calm - N/A   Overcast
8:35 AM 55.4 °F 53.6 °F 94% 29.99 in 10.0 mi SSW 4.6 mph - N/A   Mostly Cloudy
8:55 AM 57.2 °F 55.4 °F 94% 29.99 in 10.0 mi SSW 4.6 mph - N/A   Mostly Cloudy
9:15 AM 59.0 °F 55.4 °F 88% 29.98 in 10.0 mi SSW 6.9 mph - N/A   Overcast
9:35 AM 60.8 °F 55.4 °F 82% 29.97 in 10.0 mi SSW 6.9 mph - N/A   Overcast
9:55 AM 62.6 °F 55.4 °F 77% 29.97 in 10.0 mi SSW 11.5 mph 16.1 mph N/A   Overcast
10:15 AM 62.6 °F 53.6 °F 72% 29.97 in 10.0 mi SSW 9.2 mph 17.3 mph N/A   Mostly Cloudy
10:35 AM 64.4 °F 53.6 °F 68% 29.97 in 10.0 mi SW 10.4 mph 17.3 mph N/A   Overcast
10:55 AM 64.4 °F 53.6 °F 68% 29.97 in 10.0 mi SSW 9.2 mph - N/A   Overcast
11:15 AM 66.2 °F 53.6 °F 64% 29.97 in 10.0 mi SW 8.1 mph 16.1 mph N/A   Mostly Cloudy
11:35 AM 66.2 °F 53.6 °F 64% 29.96 in 10.0 mi SW 9.2 mph 20.7 mph N/A   Mostly Cloudy
11:55 AM 68.0 °F 53.6 °F 60% 29.95 in 10.0 mi WSW 10.4 mph 18.4 mph N/A   Mostly Cloudy
12:15 PM 68.0 °F 53.6 °F 60% 29.95 in 10.0 mi WSW 12.7 mph 21.9 mph N/A   Mostly Cloudy
12:35 PM 69.8 °F 53.6 °F 56% 29.94 in 10.0 mi WSW 16.1 mph 23.0 mph N/A   Overcast
12:55 PM 71.6 °F 53.6 °F 53% 29.94 in 10.0 mi SW 12.7 mph 19.6 mph N/A   Overcast
1:15 PM 69.8 °F 53.6 °F 56% 29.93 in 10.0 mi WSW 6.9 mph 21.9 mph N/A   Overcast
1:35 PM 69.8 °F 53.6 °F 56% 29.93 in 10.0 mi WSW 8.1 mph - N/A   Overcast
1:55 PM 71.6 °F 53.6 °F 53% 29.91 in 10.0 mi SW 10.4 mph 17.3 mph N/A   Overcast
2:15 PM 71.6 °F 51.8 °F 50% 29.91 in 10.0 mi SW 16.1 mph 24.2 mph N/A   Mostly Cloudy
2:35 PM 73.4 °F 51.8 °F 47% 29.90 in 10.0 mi SW 10.4 mph 21.9 mph N/A   Mostly Cloudy
2:55 PM 73.4 °F 50.0 °F 44% 29.89 in 10.0 mi SW 12.7 mph 20.7 mph N/A   Mostly Cloudy
3:15 PM 75.2 °F 50.0 °F 41% 29.88 in 10.0 mi SW 9.2 mph 21.9 mph N/A   Mostly Cloudy
3:35 PM 77.0 °F 50.0 °F 39% 29.88 in 10.0 mi SW 10.4 mph 18.4 mph N/A   Mostly Cloudy
3:55 PM 73.4 °F 50.0 °F 44% 29.88 in 10.0 mi SW 15.0 mph 24.2 mph N/A   Mostly Cloudy
4:15 PM 77.0 °F 50.0 °F 39% 29.87 in 10.0 mi SW 12.7 mph 21.9 mph N/A   Scattered Clouds
4:35 PM 77.0 °F 50.0 °F 39% 29.86 in 10.0 mi SW 12.7 mph 23.0 mph N/A   Scattered Clouds
4:55 PM 75.2 °F 50.0 °F 41% 29.86 in 10.0 mi SW 10.4 mph 23.0 mph N/A   Scattered Clouds
5:15 PM 75.2 °F 50.0 °F 41% 29.86 in 10.0 mi SW 8.1 mph 20.7 mph N/A   Scattered Clouds
5:35 PM 75.2 °F 50.0 °F 41% 29.86 in 10.0 mi SW 6.9 mph 17.3 mph N/A   Scattered Clouds
5:55 PM 73.4 °F 48.2 °F 41% 29.85 in 10.0 mi WSW 8.1 mph 18.4 mph N/A   Scattered Clouds
6:15 PM 73.4 °F 50.0 °F 44% 29.86 in 10.0 mi WSW 8.1 mph - N/A   Scattered Clouds
6:35 PM 73.4 °F 48.2 °F 41% 29.86 in 10.0 mi Calm Calm - N/A   Mostly Cloudy
6:55 PM 71.6 °F 48.2 °F 43% 29.87 in 10.0 mi WSW 9.2 mph 20.7 mph N/A   Overcast
7:15 PM 71.6 °F 50.0 °F 46% 29.87 in 10.0 mi West 8.1 mph 16.1 mph N/A   Overcast
7:35 PM 68.0 °F 51.8 °F 56% 29.88 in 10.0 mi SW 8.1 mph - N/A   Overcast
8:15 PM 64.4 °F 53.6 °F 68% 29.88 in 10.0 mi SW 5.8 mph - N/A   Mostly Cloudy
8:35 PM 64.4 °F 55.4 °F 73% 29.88 in 10.0 mi Calm Calm - N/A   Overcast
8:55 PM 62.6 °F 55.4 °F 77% 29.89 in 10.0 mi Calm Calm - N/A   Overcast
9:15 PM 62.6 °F 55.4 °F 77% 29.89 in 10.0 mi SW 3.5 mph - N/A   Overcast
9:35 PM 62.6 °F 55.4 °F 77% 29.89 in 10.0 mi Calm Calm - N/A   Mostly Cloudy
9:55 PM 60.8 °F 55.4 °F 82% 29.89 in 10.0 mi Calm Calm - N/A   Scattered Clouds
10:15 PM 60.8 °F 55.4 °F 82% 29.90 in 10.0 mi Calm Calm - N/A   Clear
10:35 PM 60.8 °F 55.4 °F 82% 29.91 in 10.0 mi Calm Calm - N/A   Scattered Clouds
10:55 PM 60.8 °F 59.0 °F 94% 29.91 in 10.0 mi Calm Calm - N/A   Mostly Cloudy
11:15 PM 60.8 °F 59.0 °F 94% 29.91 in 10.0 mi Calm Calm - N/A   Overcast
11:35 PM 60.8 °F 59.0 °F 94% 29.91 in 10.0 mi Calm Calm - N/A   Mostly Cloudy